EW1160 Weather Reports


Display with metric or nautical units.
time (UTC)temp
F
wind
direction
speed
MPH
gust
MPH
rain 1hr
in
rain 24hr
in
rain mn
in
humidity
%
barometer
mb
20260905004539 69 112 0.0 0.0 0.00 0.09 0.09 91 1012.1
20260905003040 69 112 0.0 0.0 0.00 0.09 0.09 91 1011.7
20260905001520 69 112 0.0 0.0 0.00 0.09 0.09 91 1011.5
20260905000027 70 112 0.0 0.0 0.00 0.09 0.09 90 1011.5
20260904234501 70 112 0.0 0.0 0.00 0.09 0.09 90 1011.5
20260904233001 71 112 0.0 1.0 0.00 0.09 0.09 90 1011.4
20260904231559 71 112 0.0 1.0 0.00 0.09 0.09 89 1011.4
20260904230044 71 114 0.0 1.0 0.00 0.09 0.09 88 1011.3
20260904224526 72 106 0.0 3.0 0.00 0.09 0.09 88 1011.2
20260904223026 72 99 0.0 2.0 0.00 0.09 0.09 88 1010.9
20260904221508 72 85 0.0 4.0 0.00 0.09 0.09 88 1011.0
20260904220008 71 4 0.0 4.0 0.00 0.09 0.09 89 1011.1
20260904214608 71 46 2.0 7.0 0.00 0.15 0.09 89 1010.8
20260904213050 71 8 0.0 9.0 0.00 0.15 0.09 89 1010.7
20260904211550 71 354 3.0 9.0 0.00 0.15 0.09 89 1010.6
20260904210035 72 335 0.0 8.0 0.00 0.15 0.09 89 1010.4
20260904204532 72 8 1.0 7.0 0.00 0.35 0.09 90 1010.5
20260904203019 73 4 4.0 8.0 0.00 0.35 0.09 89 1010.7
20260904201513 74 21 1.0 7.0 0.00 0.35 0.09 89 1010.7
20260904200111 74 37 1.0 4.0 0.00 0.35 0.09 89 1010.8
20260904194554 74 56 0.0 4.0 0.00 0.59 0.09 90 1010.7
20260904193038 74 94 0.0 2.0 0.00 0.59 0.09 89 1010.9
20260904191536 74 158 0.0 0.0 0.00 0.59 0.09 88 1011.0
20260904190016 74 158 0.0 0.0 0.00 0.59 0.09 88 1011.1
20260904184515 74 158 0.0 0.0 0.00 0.60 0.09 89 1011.2
20260904183057 74 157 0.0 1.0 0.00 0.60 0.09 90 1011.0
20260904181554 73 158 0.0 0.0 0.00 0.60 0.09 91 1011.2
20260904180041 72 157 0.0 0.0 0.00 0.60 0.09 92 1011.5
20260904174532 72 158 0.0 4.0 0.00 0.60 0.09 92 1011.8
20260904173015 71 359 0.0 3.0 0.00 0.60 0.09 93 1011.9
20260904171511 71 153 0.0 0.0 0.00 0.60 0.09 94 1012.1
20260904170054 71 153 0.0 3.0 0.00 0.60 0.09 94 1012.0
20260904164553 71 148 0.0 2.0 0.00 0.60 0.09 94 1012.3
20260904163034 70 148 0.0 0.0 0.00 0.60 0.09 94 1012.5
20260904161533 69 141 0.0 3.0 0.00 0.60 0.09 94 1012.8
20260904160012 69 142 0.0 5.0 0.00 0.60 0.09 94 1013.4
20260904154511 68 142 0.0 0.0 0.00 0.60 0.09 94 1013.7
20260904153100 67 143 0.0 0.0 0.00 0.60 0.09 94 1013.9
20260904151557 67 141 0.0 2.0 0.00 0.60 0.09 94 1013.7
20260904150057 67 140 0.0 0.0 0.00 0.60 0.09 94 1013.6
20260904144556 67 140 0.0 0.0 0.00 0.60 0.09 94 1013.6
20260904143056 66 139 0.0 2.0 0.00 0.60 0.09 94 1013.0
20260904141600 66 141 0.0 0.0 0.02 0.60 0.09 94 1013.2
20260904140107 66 142 0.0 0.0 0.07 0.60 0.09 94 1013.6
20260904134611 66 141 0.0 1.0 0.08 0.60 0.09 94 1013.2
20260904133037 65 140 0.0 2.0 0.08 0.60 0.09 94 1013.4
20260904131533 65 142 1.0 4.0 0.06 0.57 0.07 94 1013.1
20260904130014 65 77 0.0 2.0 0.01 0.53 0.02 94 1013.1
20260904124515 65 77 0.0 1.0 0.00 0.52 0.01 94 1012.9
20260904123103 65 78 0.0 0.0 0.00 0.52 0.01 94 1013.0
20260904121559 65 79 0.0 0.0 0.00 0.52 0.01 94 1012.8
20260904120058 65 79 0.0 0.0 0.00 0.52 0.01 94 1012.9
20260904114602 64 79 0.0 0.0 0.00 0.52 0.01 94 1012.6
20260904113057 64 78 0.0 0.0 0.01 0.52 0.01 94 1012.4
20260904111558 64 78 0.0 0.0 0.01 0.52 0.01 94 1012.2
20260904110059 64 79 0.0 1.0 0.01 0.52 0.01 94 1012.2
20260904104557 64 78 0.0 1.0 0.01 0.52 0.01 94 1011.9
20260904103058 64 78 0.0 0.0 0.00 0.51 0.00 94 1011.8
20260904101556 64 79 0.0 0.0 0.00 0.51 0.00 94 1011.5
20260904100104 64 78 0.0 0.0 0.00 0.51 0.00 94 1011.7
20260904094601 64 78 0.0 1.0 0.00 0.51 0.00 94 1011.8
20260904093055 64 79 0.0 0.0 0.00 0.51 0.00 94 1011.8
20260904091555 64 78 0.0 0.0 0.00 0.51 0.00 94 1012.0
20260904090045 63 79 0.0 0.0 0.00 0.51 0.00 94 1012.2
20260904084536 63 78 0.0 0.0 0.00 0.51 0.00 94 1012.0
20260904083020 64 78 0.0 0.0 0.00 0.51 0.00 94 1012.0
20260904081527 64 77 0.0 0.0 0.00 0.51 0.00 94 1011.9
20260904080002 64 78 0.0 1.0 0.00 0.51 0.00 94 1011.7
20260904074501 65 78 0.0 2.0 0.00 0.51 0.00 94 1011.8
20260904073101 64 21 0.0 0.0 0.00 0.51 0.00 94 1011.7
20260904071618 65 21 0.0 0.0 0.00 0.51 0.00 94 1012.3
20260904070114 66 21 0.0 0.0 0.00 0.51 0.00 94 1012.6
20260904064553 66 21 0.0 0.0 0.00 0.51 0.00 94 1012.7
20260904063101 66 21 0.0 0.0 0.00 0.51 0.00 94 1012.8
20260904061553 66 21 0.0 0.0 0.00 0.51 0.00 94 1012.7
20260904060036 67 21 0.0 2.0 0.00 0.51 0.00 94 1012.5
20260904054545 67 21 0.0 1.0 0.00 0.51 0.00 94 1012.7
20260904053035 68 21 0.0 2.0 0.00 0.51 0.00 94 1012.7
20260904051524 68 21 0.0 2.0 0.00 0.51 0.00 94 1013.0
20260904050003 68 21 0.0 5.0 0.00 0.51 0.00 94 1013.0
20260904044502 68 25 0.0 4.0 0.00 0.51 0.00 94 1012.8
20260904043002 68 25 0.0 1.0 0.00 0.51 0.00 94 1012.8
20260904041559 68 187 0.0 3.0 0.00 0.51 0.00 94 1012.8
20260904040107 67 359 0.0 1.0 0.00 0.51 0.00 94 1012.5
20260904034553 66 359 0.0 0.0 0.00 0.52 0.51 94 1012.3
20260904033053 66 186 0.0 0.0 0.00 0.52 0.51 94 1012.2
20260904031557 66 185 0.0 0.0 0.00 0.52 0.51 94 1012.3
20260904030034 67 189 0.0 0.0 0.00 0.52 0.51 94 1012.1
20260904024535 67 187 0.0 0.0 0.00 0.60 0.51 94 1012.1
20260904023016 67 189 0.0 0.0 0.00 0.60 0.51 94 1012.1
20260904021523 68 189 0.0 0.0 0.00 0.60 0.51 94 1012.1
20260904020004 68 189 0.0 0.0 0.00 0.60 0.51 94 1011.9
20260904014504 68 189 0.0 0.0 0.00 0.66 0.51 94 1012.0
20260904013009 68 187 0.0 1.0 0.00 0.66 0.51 94 1011.9
20260904011504 68 185 0.0 1.0 0.00 0.66 0.51 94 1011.9
20260904010003 68 187 0.0 7.0 0.00 0.66 0.51 94 1011.7